COSMOS 1275 DEB, 13460

Orbit data source: Space-Track

COSMOS 1275 DEB, 13460 is space debris in LEO originally from a launch on Thu, 04 Jun 1981 UTC launched from the Plesetsk Missile And Space Complex (PKMTR). Debris objects in space refer to the collection of defunct objects orbiting the Earth. Examples of debris include non-operational satellites, rocket bodies, and fragments generated from explosions, collisions, or faulty payload assembly.

Loading next visibility...
Identifier
13460, 1981-053FG
Orbit
LEO
Country
Flag of CISCIS
Related business
Manufacturer
Unknown
Mission
Spacecraft
Bus & Motor
Unknown
Mass
Unknown
Launch date (UTC)
1981-06-04 (45 years ago)
Launch vehicle
Unknown
Launch site
Plesetsk Missile And Space Complex (PKMTR)
Object type
Payload
Rocket body
Debris
Shape & HBR
Unknown shape, 0.1 m
Radar Cross Section
Small (<0.1 m²)

Expand to show TLE details & history
Last TLE update: 10 hours ago

TLE from 10 hours ago
0 COSMOS 1275 DEB
1 13460U 81053FG  26121.39204521  .00000846  00000-0  78581-3 0  9999
2 13460  83.1316 343.2067 0085165 133.0725  44.6861 13.79448220216333
Epoch: 2026-05-01T09:24Z
TLE epoch observation values (Epoch: 2026-05-01T09:24:32.706Z)
Latitude
1.43207°
Longitude
162.57383°
Altitude
924.37 km
Speed
7.412 km/s
True Right ascension
10h 52m 08s
True Declination
1° 25' 25"
Sunlit
Object was in full shadow at epoch
Visualization orbit readout
Latitude
Unknown
Longitude
Unknown
Altitude
Unknown
Speed
Unknown
Apparent Right ascension
Unknown
Apparent Declination
Unknown
Sunlit
N/A
Visualization observer readout
Local Sidereal Time
02:57:06
Azimuth
Unknown
Elevation
Unknown
Doppler factor
Unknown
Orbital elements
Apogee altitude
1,025.5 km
Perigee altitude
900.459 km
Semi-major axis
7,341.117 km
Eccentricity
0.00852
Inclination
83.1316°
RAAN
343.2067°
Arg. of periapsis
133.0725°
True anomaly
45.3776°
Mean anomaly
44.6861°
Eccentric anomaly
45.03133°
Mean motion
3.45064 °/min
Orbital period
104.33 mins
BSTAR
0.00078581
Loading maneuver chart data...
Computing Atmospheric mass density...
Loading historical data...
Loading historical data...
Loading historical data...
Loading historical data...
Loading historical data...
Loading historical data...
Loading historical data...

Documentation

Showing up to 5 results
|